Location: Gull Harbor
(47.1000°N, 122.9000°W)
Time: 11:25:55
(UTC-07:00)

Tiangong 1 - Visible Passes

Search period start: 22 June 2017 00:00
Search period end: 02 July 2017 00:00
Orbit: 321 x 345 km, 42.8° (Epoch: 21 June)

Date Brightness Start Highest point End Pass type
(mag) Time Alt. Az. Time Alt. Az. Time Alt. Az.
22 Jun 2.5 21:57:21 10° SSW 21:59:16 17° SSE 22:01:09 10° ESE visible
22 Jun 2.9 23:31:53 10° WSW 23:32:43 17° SW 23:32:43 17° SW visible
23 Jun 1.9 22:16:05 10° SW 22:18:29 25° SSE 22:20:26 13° ESE visible
23 Jun 3.3 23:51:11 10° WSW 23:51:36 13° WSW 23:51:36 13° WSW visible
24 Jun 1.5 22:35:10 10° WSW 22:37:43 32° S 22:39:01 20° SE visible
25 Jun 1.6 22:54:23 10° WSW 22:56:55 31° S 22:57:23 29° SSE visible
26 Jun 2.2 23:13:42 10° WSW 23:15:36 23° SSW 23:15:36 23° SSW visible
27 Jun 1.7 21:57:24 10° WSW 21:59:58 32° S 22:02:30 10° ESE visible
27 Jun 3.3 23:33:14 10° WSW 23:33:43 12° SW 23:33:43 12° SW visible
28 Jun 2.1 22:16:37 10° WSW 22:19:01 25° SSW 22:20:38 15° SE visible
29 Jun 2.7 22:36:04 10° WSW 22:37:57 16° SSW 22:38:37 15° S visible
